Temp
62 57 53 57 58 58 55 53 51 55 61 56 52 52 55 56 54 53 51 51 53 56 59 60 61 62 59 57 56 57 59 57 56 54 53 52 52 52 53 54 57 57 56 57
57 52 60 63 62 60 56 52 50 56 60 57 54 54 58 56 57 58 55 53 54 54 54 57 60 60 61 59 57 56 58 58 56 53 52 51 50 51 51 52 55 56 56 56
52 58 66 63 58 57 53 50 49 51 55 55 51 49 51 54 54 56 55 56 55 55 56 55 55 58 57 57 56 57 57 58 56 55 53 53 52 51 51 51 52 53 54 54
55 62 62 57 56 57 48 56 56 54 48 42 51 37 46 48 47 52 53 52 54 54 57 56 56 55 55 56 56 57 57 57 58 55 53 50 49 48 48 48 49 50 52 52
54 56 55 54 56 58 53 56 53 51 44 40 42 39 45 45 45 49 51 53 53 53 56 55 55 57 57 56 55 56 56 57 57 55 53 50 49 47 47 47 48 48 49 51
55 61 58 57 59 58 58 52 48 44 41 33 41 42 42 43 48 47 49 53 54 54 55 56 56 56 56 55 54 55 56 57 56 54 53 51 48 47 46 46 45 46 46 47
51 53 56 59 52 55 52 43 35 34 32 34 44 41 43 48 50 51 53 52 54 54 54 54 54 54 54 54 55 56 56 55 54 53 51 50 49 47 46 45 44 44 44 45
43 42 51 56 51 47 47 44 35 32 31 36 44 38 45 50 54 52 53 53 53 53 54 54 54 54 54 55 55 55 54 53 53 51 51 50 48 46 46 45 45 44 44 45
42 44 53 55 54 52 46 41 45 39 35 33 38 43 50 50 52 51 50 52 52 53 53 53 54 54 53 54 55 54 53 52 52 51 49 47 47 46 45 46 45 44 45 49
44 40 49 52 53 52 46 49 40 36 31 29 35 36 40 45 45 47 47 48 51 53 53 53 54 54 53 51 52 52 52 51 50 48 47 48 46 46 46 44 44 44 45 45
44 42 42 47 44 43 44 42 41 40 36 30 29 35 44 44 48 47 47 52 52 53 52 51 51 52 52 51 50 50 49 49 48 47 46 45 45 45 44 43 44 44 44 44
43 41 37 42 47 50 46 44 42 34 34 31 26 33 48 46 51 53 51 53 51 51 53 53 51 51 49 49 48 47 47 46 46 46 45 45 44 43 42 41 42 43 44 46
44 39 33 38 42 45 43 46 45 39 32 32 27 35 49 46 48 49 47 47 51 50 51 52 50 48 47 46 46 46 45 45 45 45 43 43 43 42 41 41 42 45 45 45
49 39 38 33 37 41 40 44 45 40 25 31 33 37 45 47 46 47 48 49 50 52 52 50 47 45 44 44 44 44 44 44 44 43 42 41 40 41 40 41 45 45 45 44
44 38 38 41 44 43 44 44 44 40 39 34 37 40 44 45 43 45 46 49 49 50 51 49 45 43 42 42 42 43 43 43 42 42 41 41 42 41 42 43 44 44 46 47
42 37 37 37 42 41 41 43 42 41 42 41 40 39 45 46 45 46 46 47 47 46 47 46 46 44 44 42 41 42 42 42 41 40 41 42 43 42 43 43 43 44 45 46
40 36 32 30 37 38 34 40 43 42 42 41 35 38 43 44 46 45 46 44 45 45 47 47 46 44 43 42 43 41 41 40 39 39 40 41 41 42 42 44 45 43 44 45
38 36 32 24 31 25 39 44 45 42 42 42 42 42 44 44 46 46 46 45 47 47 47 45 43 42 42 42 42 41 41 39 38 37 39 39 41 41 43 44 44 44 44 43
40 35 27 23 20 33 38 42 41 39 39 43 42 44 45 45 42 42 48 48 47 46 45 43 42 43 41 41 41 40 39 38 37 38 37 40 41 40 43 42 42 42 42 41
39 35 31 25 19 20 37 44 47 44 29 43 44 43 42 42 34 37 46 48 47 47 45 43 42 42 40 41 39 38 36 35 35 39 39 41 41 41 42 42 42 43 42 42
30 28 26 22 19 29 41 45 47 30 32 42 44 43 42 38 40 45 46 46 46 45 44 43 40 39 39 39 38 36 35 34 38 40 41 40 41 43 43 43 43 42 40 40
31 24 24 23 21 24 45 43 38 40 41 43 42 44 43 43 44 44 45 44 45 43 42 41 39 39 38 38 36 35 33 39 39 39 39 39 42 43 44 42 41 39 39 38
32 38 31 32 32 43 44 43 45 45 43 42 42 43 43 42 42 43 43 43 42 41 41 41 39 38 37 37 36 34 37 38 38 37 37 39 41 43 43 40 38 38 38 38
41 42 34 36 40 42 44 46 46 45 42 45 44 44 43 41 42 41 42 41 41 40 40 40 38 36 35 36 37 35 36 38 36 35 36 40 40 41 40 39 39 38 38 38
41 40 38 35 38 41 42 42 43 43 44 43 43 43 43 42 41 41 41 40 40 39 39 38 36 36 35 36 35 36 36 36 35 36 40 41 41 39 38 38 38 39 41 44
41 39 35 34 41 40 39 41 44 44 43 44 42 42 43 42 41 42 40 40 39 38 38 37 36 35 35 35 35 35 37 36 35 38 39 39 39 38 38 37 37 42 45 46
MSLP
1012.67 1013.26 1013.59 1013.60 1013.74 1013.85 1014.14 1014.41 1014.59 1014.49 1014.34 1014.96 1015.38 1015.73 1016.04 1016.37 1017.19 1017.74 1018.27 1018.53 1018.82 1018.85 1018.71 1018.79 1018.76 1018.96 1019.37 1019.71 1019.94 1019.90 1019.91 1019.95 1020.04 1020.26 1020.50 1020.58 1020.69 1020.33 1020.04 1019.74 1019.46 1019.28 1019.12 1018.89
1013.31 1013.34 1013.18 1013.29 1013.47 1013.76 1014.08 1014.33 1014.58 1014.55 1014.51 1015.00 1015.28 1015.46 1015.29 1015.46 1015.69 1016.09 1017.00 1018.01 1018.38 1018.77 1018.96 1018.95 1018.87 1018.88 1019.13 1019.48 1019.81 1019.89 1019.82 1019.87 1019.97 1020.12 1020.29 1020.36 1020.42 1020.24 1020.05 1019.74 1019.46 1019.23 1019.11 1018.94
1013.29 1013.21 1013.01 1013.27 1013.51 1013.81 1014.21 1014.44 1014.73 1015.11 1015.19 1015.35 1015.79 1015.71 1015.22 1015.10 1015.31 1015.86 1016.66 1017.20 1017.86 1018.17 1018.61 1018.90 1018.87 1018.98 1019.01 1019.27 1019.57 1019.69 1019.69 1019.69 1019.83 1019.95 1020.01 1020.03 1020.11 1020.09 1020.08 1019.74 1019.55 1019.29 1019.18 1018.99
1013.43 1013.18 1013.26 1013.46 1013.69 1014.05 1014.51 1014.62 1015.12 1015.70 1016.35 1016.64 1016.52 1016.84 1015.73 1015.37 1015.66 1015.99 1016.47 1017.06 1017.50 1017.92 1018.32 1018.49 1018.70 1018.89 1018.91 1018.89 1019.12 1019.28 1019.38 1019.46 1019.59 1019.73 1019.83 1020.21 1020.42 1020.59 1020.27 1020.03 1019.75 1019.46 1019.05 1018.87
1013.74 1013.61 1013.66 1013.84 1014.03 1014.26 1014.80 1015.20 1015.89 1016.41 1017.25 1017.75 1017.44 1017.72 1015.63 1015.75 1015.80 1015.96 1016.22 1016.73 1017.21 1017.58 1017.99 1018.42 1018.33 1018.38 1018.49 1018.69 1018.94 1019.09 1019.21 1019.25 1019.25 1019.38 1019.57 1019.91 1020.26 1020.31 1020.05 1019.88 1019.67 1019.38 1019.03 1018.69
1014.19 1013.91 1013.99 1014.14 1014.42 1014.78 1015.33 1016.04 1016.93 1017.71 1018.39 1018.76 1017.46 1017.51 1016.10 1015.90 1015.50 1015.68 1016.18 1016.58 1017.07 1017.59 1017.86 1017.89 1017.95 1018.22 1018.32 1018.66 1019.08 1019.18 1019.02 1018.90 1018.96 1019.16 1019.35 1019.71 1020.07 1020.13 1020.09 1019.91 1019.79 1019.34 1018.96 1018.63
1015.02 1014.74 1014.60 1014.55 1015.02 1015.40 1015.97 1017.16 1018.34 1019.19 1019.66 1018.83 1017.57 1017.54 1015.86 1015.35 1015.17 1015.28 1015.65 1016.34 1016.88 1017.16 1017.46 1018.00 1018.14 1018.26 1018.64 1018.88 1018.88 1018.81 1018.80 1018.88 1018.93 1019.13 1019.40 1019.56 1019.69 1019.79 1019.93 1019.81 1019.60 1019.29 1018.83 1018.31
1015.90 1015.58 1015.24 1015.17 1015.39 1015.88 1016.64 1017.61 1018.70 1019.27 1019.65 1018.93 1017.53 1016.84 1015.40 1015.22 1015.20 1015.28 1015.01 1015.57 1016.42 1017.02 1017.32 1017.60 1017.78 1018.14 1018.34 1018.36 1018.45 1018.55 1018.73 1018.90 1019.05 1019.27 1019.37 1019.39 1019.46 1019.59 1019.56 1019.38 1019.11 1018.79 1018.36 1017.82
1016.62 1016.24 1015.83 1015.82 1015.96 1016.43 1017.08 1017.92 1018.44 1019.17 1019.78 1019.56 1018.03 1016.68 1015.63 1015.30 1015.51 1015.50 1015.73 1016.07 1016.60 1017.12 1017.28 1017.56 1017.74 1017.83 1018.10 1018.24 1018.31 1018.57 1018.87 1019.08 1019.21 1019.34 1019.41 1019.43 1019.43 1019.44 1019.31 1018.93 1018.62 1018.25 1017.87 1017.45
1017.26 1017.11 1016.58 1016.54 1016.53 1016.88 1017.19 1017.93 1018.73 1019.77 1020.48 1020.29 1018.73 1017.54 1016.60 1015.94 1016.09 1016.25 1016.37 1016.60 1016.86 1017.03 1017.24 1017.41 1017.54 1017.71 1018.03 1018.33 1018.59 1018.80 1018.96 1019.20 1019.34 1019.42 1019.50 1019.50 1019.43 1019.16 1018.81 1018.54 1018.26 1017.87 1017.39 1016.96
1017.82 1017.92 1017.80 1017.34 1017.33 1017.35 1017.85 1018.14 1018.97 1019.97 1020.59 1020.81 1020.02 1018.40 1016.90 1016.40 1016.25 1016.53 1016.74 1016.83 1016.87 1017.02 1017.36 1017.75 1018.01 1018.25 1018.43 1018.66 1018.84 1019.08 1019.25 1019.41 1019.57 1019.57 1019.46 1019.34 1019.00 1018.60 1018.36 1018.11 1017.70 1017.32 1016.96 1016.60
1018.73 1018.91 1018.74 1018.17 1017.67 1017.54 1017.69 1018.08 1018.96 1020.55 1021.26 1021.32 1020.77 1018.62 1017.18 1016.81 1016.43 1016.33 1016.52 1016.98 1017.17 1017.21 1017.57 1017.81 1018.07 1018.45 1018.80 1019.17 1019.30 1019.46 1019.56 1019.62 1019.64 1019.46 1019.13 1019.01 1018.73 1018.53 1018.31 1017.99 1017.58 1017.16 1016.52 1015.89
1019.12 1019.58 1019.57 1018.88 1018.49 1017.97 1017.92 1018.06 1018.74 1020.10 1021.00 1021.18 1021.20 1018.95 1017.53 1017.41 1017.14 1017.14 1017.19 1017.43 1017.54 1017.56 1017.78 1018.04 1018.32 1018.74 1019.29 1019.64 1019.69 1019.70 1019.70 1019.70 1019.53 1019.04 1019.05 1018.84 1018.52 1018.19 1017.83 1017.37 1016.90 1016.36 1015.70 1015.04
1019.55 1019.98 1019.92 1019.64 1019.04 1018.68 1018.53 1018.27 1018.64 1019.74 1021.00 1020.92 1020.11 1019.11 1018.24 1017.97 1017.79 1017.67 1017.75 1017.82 1017.94 1017.96 1018.08 1018.34 1018.79 1019.38 1019.66 1019.87 1019.93 1019.95 1019.77 1019.45 1019.11 1019.01 1018.91 1018.63 1018.20 1017.71 1017.26 1016.73 1016.10 1015.45 1014.80 1014.13
1020.29 1020.67 1020.48 1019.97 1019.58 1019.24 1018.73 1018.52 1018.84 1019.59 1019.86 1020.30 1019.71 1019.36 1018.73 1018.36 1018.34 1018.48 1018.56 1018.57 1018.59 1018.62 1018.64 1018.82 1019.30 1019.58 1019.75 1019.92 1019.91 1019.75 1019.46 1019.18 1019.01 1018.86 1018.50 1018.05 1017.49 1017.06 1016.60 1016.02 1015.33 1014.59 1013.89 1013.13
1020.91 1021.33 1021.34 1020.91 1020.30 1019.89 1019.19 1018.72 1018.72 1018.78 1019.11 1019.35 1019.36 1019.35 1019.04 1019.08 1018.95 1019.07 1019.03 1018.95 1019.02 1019.03 1019.13 1019.24 1019.40 1019.47 1019.74 1019.95 1019.87 1019.60 1019.43 1019.20 1018.95 1018.65 1018.18 1017.61 1017.10 1016.62 1016.06 1015.39 1014.65 1013.85 1013.02 1012.20
1021.70 1022.32 1022.79 1022.27 1021.50 1020.55 1019.72 1018.73 1018.52 1018.48 1018.78 1018.94 1019.40 1019.73 1019.65 1019.61 1019.41 1019.21 1019.12 1019.13 1019.12 1019.12 1019.06 1019.12 1019.22 1019.50 1019.70 1019.70 1019.57 1019.51 1019.27 1018.98 1018.72 1018.36 1017.96 1017.45 1016.83 1016.16 1015.46 1014.62 1013.68 1012.94 1012.03 1011.15
1022.20 1023.03 1023.66 1023.93 1022.82 1021.67 1019.56 1018.80 1018.61 1018.90 1019.28 1019.22 1019.46 1019.71 1019.74 1019.71 1019.47 1019.20 1019.12 1019.05 1019.22 1019.04 1018.89 1018.97 1019.36 1019.59 1019.58 1019.51 1019.42 1019.26 1019.01 1018.79 1018.54 1018.17 1017.68 1017.07 1016.33 1015.49 1014.58 1013.67 1012.80 1011.94 1011.15 1010.29
1022.41 1023.48 1024.81 1025.18 1024.41 1022.21 1019.99 1019.07 1018.83 1018.87 1019.24 1019.43 1019.65 1019.76 1019.77 1019.71 1019.52 1019.27 1019.01 1018.93 1018.84 1018.72 1018.66 1019.05 1019.30 1019.39 1019.51 1019.51 1019.25 1019.05 1018.84 1018.68 1018.39 1017.90 1017.25 1016.49 1015.74 1014.85 1013.85 1012.87 1012.02 1011.06 1010.21 1009.30
1023.29 1023.93 1024.86 1025.71 1025.50 1023.34 1020.19 1019.01 1018.83 1019.17 1019.60 1019.56 1019.66 1019.85 1019.97 1019.91 1020.08 1019.50 1019.10 1018.94 1018.61 1018.34 1018.51 1018.91 1019.25 1019.47 1019.53 1019.34 1019.13 1018.97 1018.82 1018.58 1018.15 1017.44 1016.66 1015.83 1015.05 1014.16 1013.13 1012.14 1011.19 1010.23 1009.37 1008.41
1023.89 1024.77 1025.21 1025.35 1024.76 1022.27 1019.68 1019.08 1019.11 1019.87 1019.90 1019.60 1019.77 1019.96 1020.15 1020.51 1020.27 1019.37 1019.16 1018.74 1018.37 1018.26 1018.48 1018.85 1019.21 1019.40 1019.34 1019.12 1019.03 1018.99 1018.71 1018.36 1017.57 1016.87 1016.04 1015.25 1014.39 1013.38 1012.46 1011.44 1010.50 1009.54 1008.57 1007.71
1023.14 1024.14 1024.61 1024.97 1024.15 1021.37 1019.15 1019.27 1019.58 1019.55 1019.49 1019.72 1019.98 1020.07 1020.15 1020.23 1019.95 1019.63 1019.21 1018.76 1018.36 1018.41 1018.60 1018.91 1019.26 1019.35 1019.19 1019.11 1018.98 1018.87 1018.59 1017.79 1017.24 1016.53 1015.69 1014.71 1013.69 1012.76 1011.80 1010.87 1009.88 1008.96 1008.06 1007.06
1022.14 1021.41 1021.80 1022.38 1020.98 1019.62 1019.03 1018.97 1019.18 1019.49 1019.82 1020.01 1020.22 1020.25 1020.22 1020.18 1019.91 1019.53 1019.14 1018.79 1018.53 1018.59 1018.80 1019.01 1019.28 1019.27 1019.07 1018.96 1018.81 1018.75 1018.13 1017.58 1016.94 1016.20 1015.22 1014.21 1013.13 1012.18 1011.25 1010.46 1009.45 1008.50 1007.52 1006.53
1020.35 1020.19 1020.74 1020.95 1019.83 1019.65 1019.46 1019.63 1019.80 1020.01 1020.26 1020.31 1020.26 1020.15 1020.03 1020.05 1019.66 1019.32 1019.02 1018.79 1018.81 1018.88 1019.05 1019.21 1019.27 1019.20 1019.15 1018.86 1018.73 1018.51 1018.01 1017.35 1016.70 1015.85 1014.85 1013.68 1012.73 1011.59 1010.95 1010.11 1009.21 1008.29 1007.18 1005.93
1020.33 1020.15 1020.18 1020.42 1020.15 1020.11 1020.23 1020.23 1020.19 1020.14 1020.02 1019.98 1020.00 1019.98 1019.87 1019.70 1019.36 1019.15 1018.86 1018.80 1018.88 1018.98 1019.08 1019.09 1019.16 1019.28 1019.22 1018.83 1018.56 1018.21 1017.71 1017.08 1016.42 1015.56 1014.37 1013.36 1012.42 1011.51 1010.60 1009.85 1009.00 1008.02 1006.94 1005.52
1020.05 1019.47 1019.70 1019.73 1019.52 1019.67 1020.05 1019.90 1019.70 1019.81 1020.05 1020.12 1020.21 1020.07 1019.76 1019.62 1019.36 1019.03 1019.00 1018.94 1019.00 1019.07 1019.07 1019.03 1019.07 1019.08 1019.00 1018.68 1018.35 1017.98 1017.37 1016.85 1016.18 1015.10 1014.08 1013.18 1012.24 1011.34 1010.46 1009.56 1008.49 1007.83 1006.58 1005.77
Wind_Speed
1 4 4 7 6 4 3 2 4 5 1 5 6 7 8 11 6 9 9 10 8 10 8 7 8 8 8 6 5 5 6 3 2 2 1 1 1 3 2 4 6 7 6 7
6 2 5 4 4 4 2 3 4 3 2 4 5 11 10 9 16 18 15 12 10 7 7 7 8 7 7 7 7 5 4 4 2 2 2 2 2 3 3 3 5 5 6 7
5 2 3 3 2 2 0 3 2 4 4 4 4 9 5 1 1 6 5 10 8 13 12 8 8 9 6 7 7 6 5 4 2 3 1 1 1 2 3 3 3 4 6 7
3 1 3 2 2 3 2 3 1 1 3 4 4 7 7 4 3 6 8 9 10 10 8 7 8 7 9 7 6 6 6 5 4 3 2 1 1 2 3 2 3 5 6 6
5 4 2 2 2 1 5 2 1 1 2 3 3 3 9 2 3 7 9 8 8 9 11 10 10 9 8 7 7 7 5 4 3 1 1 1 2 3 3 3 5 5 5 6
2 1 1 3 2 2 3 3 7 5 3 2 5 6 7 3 5 3 5 7 7 8 9 9 7 6 6 5 6 6 6 4 3 2 3 3 4 5 4 4 4 5 4 5
2 1 1 1 2 4 5 6 4 4 2 7 1 4 8 5 3 4 10 9 8 9 9 7 9 8 6 8 8 6 5 5 3 2 4 3 4 3 4 5 4 6 4 3
3 5 2 2 2 4 3 6 6 5 3 4 4 5 4 3 6 6 2 7 7 7 7 9 9 8 8 8 7 6 4 5 3 3 4 3 4 2 4 4 4 5 4 5
4 4 1 3 2 3 1 2 3 2 2 2 4 5 7 2 6 8 6 5 8 7 8 8 8 8 7 7 7 5 2 2 2 3 3 4 4 5 5 7 6 5 6 6
2 2 1 1 2 2 2 2 3 3 2 4 5 4 4 5 1 2 3 4 5 6 7 8 7 7 4 2 1 3 3 1 2 4 3 3 5 6 6 5 6 7 7 6
1 3 2 2 3 5 2 2 2 3 5 5 2 6 4 2 3 3 4 7 7 8 4 5 4 2 1 3 4 3 4 4 5 4 3 5 6 6 5 5 7 7 6 7
2 4 3 5 3 1 3 4 5 5 4 1 5 8 3 2 8 7 5 5 5 1 2 4 3 2 3 3 4 5 4 4 3 5 4 6 6 6 7 6 6 7 10 11
2 1 2 5 5 2 3 3 4 5 3 5 6 7 1 2 4 5 3 2 2 2 4 3 2 2 4 4 5 4 4 4 5 5 6 6 7 7 7 7 9 12 13 13
2 2 5 7 4 2 4 3 4 5 4 3 6 4 5 5 2 3 4 5 6 6 5 3 1 4 4 3 3 3 5 5 5 5 5 7 7 7 7 8 12 14 14 13
3 3 2 4 5 4 6 7 6 6 5 6 4 6 6 7 1 4 4 5 7 8 8 5 4 2 1 3 5 5 6 6 5 6 7 8 8 8 8 12 14 14 15 15
2 1 2 3 3 5 5 6 8 7 4 6 5 5 3 5 5 7 6 6 7 7 4 3 1 2 3 3 4 6 6 6 5 7 9 9 10 9 12 13 15 16 17 17
3 3 3 5 5 6 5 2 5 2 2 1 3 1 3 6 5 5 6 2 1 2 4 6 5 2 3 5 5 6 6 6 7 7 8 9 10 13 13 15 17 17 18 18
5 4 2 3 5 1 5 1 4 9 2 4 4 1 3 4 6 7 6 3 7 8 9 6 2 3 4 4 5 5 6 7 6 7 9 9 12 13 15 17 18 17 16 18
3 4 3 3 2 7 0 0 2 2 5 2 2 4 4 5 3 4 4 4 6 8 5 3 3 3 3 5 6 6 6 6 6 9 9 12 13 15 17 18 18 17 16 16
5 6 5 2 4 6 5 3 2 3 4 2 2 4 5 5 7 5 7 6 8 8 3 4 3 2 3 5 5 5 6 6 7 10 12 13 14 15 17 18 17 15 16 17
2 3 5 3 3 9 8 5 4 2 8 2 1 4 4 3 6 8 9 8 6 4 5 2 1 3 5 5 5 6 6 8 10 10 13 13 14 16 17 17 16 15 15 15
7 7 5 3 2 9 6 3 6 5 0 2 3 5 5 7 8 8 10 8 6 4 2 1 1 4 5 4 4 6 7 10 10 11 13 14 15 14 14 17 15 16 14 14
3 8 7 10 9 4 3 3 4 3 1 4 4 6 5 8 7 8 7 7 3 3 1 1 2 4 4 5 5 7 9 9 10 12 13 13 15 15 14 15 15 12 12 11
5 4 4 3 3 4 4 4 4 2 2 5 5 7 6 6 8 8 7 4 2 2 2 2 3 5 6 6 6 6 7 9 10 11 13 13 15 17 14 11 10 10 11 11
4 3 3 3 2 5 2 2 4 1 1 3 4 4 6 6 8 7 6 2 2 2 2 3 3 4 7 6 7 7 7 9 10 11 13 15 12 14 13 11 10 10 12 12
4 7 5 6 6 4 3 1 3 5 5 6 6 8 8 5 8 5 2 2 2 3 3 3 4 5 6 6 7 7 8 8 10 12 11 11 11 11 10 10 11 17 20 21
Wind_Direction
34 92 192 210 202 172 182 210 240 263 261 157 229 272 245 212 209 206 196 197 191 188 200 177 166 164 132 131 147 157 143 155 115 49 24 7 318 295 318 334 334 335 328 331
30 210 219 198 149 166 173 237 279 271 275 175 262 258 249 195 214 205 191 190 193 177 180 198 180 176 176 170 180 181 181 169 149 149 190 176 218 270 268 304 314 314 317 319
151 241 169 168 167 166 77 204 221 226 345 303 333 293 297 329 236 171 167 189 189 180 181 200 196 197 185 185 192 193 195 172 154 170 140 357 336 356 341 325 310 314 321 311
199 222 158 153 228 125 247 187 146 45 46 256 53 283 294 342 285 198 187 182 193 185 193 192 199 202 204 211 197 187 183 179 174 165 78 69 219 284 254 258 281 305 322 322
243 161 159 190 217 209 227 123 127 116 94 8 312 114 269 40 284 227 216 210 202 192 185 195 207 208 213 184 182 188 192 193 219 256 152 261 285 242 276 301 321 319 314 314
214 317 77 169 92 71 147 75 35 51 80 0 249 152 284 218 237 221 233 227 200 186 189 212 206 189 184 185 184 196 196 233 273 324 299 285 275 292 315 305 305 297 285 285
34 257 335 136 129 10 73 58 327 346 2 226 85 125 245 305 332 234 208 210 203 191 184 186 189 187 183 187 197 201 209 255 279 308 311 295 281 278 271 277 276 294 287 276
162 300 174 7 154 178 170 147 162 238 219 275 319 246 266 264 315 351 253 185 183 194 193 201 190 187 196 200 208 220 225 254 334 324 312 321 321 300 286 271 275 269 263 271
161 273 233 61 40 107 178 174 181 107 13 50 260 287 322 332 21 19 58 138 192 206 209 207 205 206 203 209 221 220 236 348 336 340 342 339 331 313 286 285 278 275 283 289
207 325 212 39 42 46 150 186 58 8 246 263 289 283 235 341 72 48 63 167 209 221 215 218 218 212 220 249 9 70 81 48 5 6 359 330 296 285 289 300 295 288 283 284
60 110 297 42 190 188 45 298 76 122 146 184 284 276 252 237 192 150 228 234 233 238 287 305 327 353 68 69 72 70 42 30 14 353 307 293 292 298 298 293 289 288 293 284
40 136 232 241 277 244 185 194 145 125 239 166 147 273 266 165 151 171 213 43 26 0 256 293 261 149 79 72 42 36 31 17 327 279 300 306 307 306 296 287 285 283 285 288
159 32 16 347 356 323 221 213 137 110 85 209 133 262 186 314 21 360 105 82 35 56 25 20 95 104 62 31 24 18 356 322 295 341 341 332 318 306 292 285 285 291 286 282
93 134 168 190 199 180 276 243 176 137 118 203 228 301 292 323 354 5 30 6 2 354 340 234 12 49 30 20 358 330 313 315 339 340 309 291 283 274 273 276 297 293 286 283
111 195 242 253 252 252 239 246 257 215 203 184 247 235 295 286 178 27 20 354 334 316 314 0 62 36 331 343 340 330 324 337 322 316 305 292 288 281 287 297 299 295 291 290
26 214 29 286 13 7 279 290 277 237 212 245 244 278 347 36 52 21 339 328 336 336 47 34 312 273 317 316 311 326 317 308 302 294 291 294 303 297 301 302 301 299 296 294
115 114 70 270 347 331 327 266 266 245 99 249 199 72 2 16 352 309 313 19 7 237 242 251 247 275 317 321 315 309 300 296 295 296 302 299 298 304 304 299 302 300 295 295
132 106 110 248 0 4 233 328 51 111 111 91 91 196 242 256 263 267 233 261 278 271 254 246 230 264 276 285 301 306 302 303 306 302 298 294 301 302 302 310 301 301 299 296
67 113 91 120 205 288 90 308 119 109 249 177 230 285 273 300 277 281 264 253 279 270 264 197 218 255 302 302 301 315 320 320 313 310 300 303 304 301 305 308 306 301 298 296
67 71 115 119 134 223 235 219 143 86 286 305 309 327 318 6 341 271 271 291 295 294 180 203 233 279 305 306 324 334 318 311 301 306 302 303 302 302 306 304 305 302 299 296
58 22 171 168 216 284 241 235 132 135 236 219 258 292 296 260 222 270 298 294 286 225 183 143 17 300 300 331 353 329 311 301 294 298 304 300 304 309 307 306 305 303 304 301
172 151 203 100 94 281 178 106 179 202 167 276 282 268 280 282 290 288 290 286 279 185 162 150 320 311 318 337 340 316 307 302 301 299 302 303 310 312 310 310 310 309 306 302
248 193 181 176 212 247 178 130 87 117 180 329 320 296 273 276 269 287 283 288 212 184 192 316 294 308 330 330 330 318 305 312 309 309 310 311 315 314 315 316 310 310 308 304
246 156 198 82 236 162 105 77 52 20 241 258 249 262 269 276 287 292 298 274 216 201 229 265 326 342 325 324 319 295 301 308 308 310 310 319 318 320 321 315 313 311 309 308
216 118 192 272 330 89 83 117 192 236 0 357 335 291 292 296 297 285 292 221 212 227 289 323 347 322 309 312 306 304 300 305 306 309 316 328 318 322 318 318 317 316 310 330
203 198 167 231 207 148 173 59 46 31 360 343 339 324 308 299 296 289 259 235 232 278 304 332 324 315 303 309 312 307 307 307 309 313 324 320 325 320 318 322 319 317 322 348